sat.trackr.live / text

‹ back to catalog

LEMUR-2-EMERSONROSE

NORAD 63261 · 2025-052BD

PAYLOAD ACTIVE UNKNOWN

§ Identity

Operator
Country
US
Launch date
2025-03-15
Launch site
AFWTR
Launch vehicle
Mass (kg)
RCS (m²)

Purposes: earth_obs

External: N2YO · Heavens-Above · Gunter

§ Orbital elements

Epoch: 2026-09-19T22:10:53.834016Z

Period
96.02 min
Inclination
97.6771°
Eccentricity
0.0005545
Mean motion
14.99673345 rev/d
Perigee alt
564.1 km
Apogee alt
571.8 km
Semi-major
6,946.0 km
B*
2.5777e-4
RAAN
154.9435°
Arg perigee
84.6681°
Mean anomaly
275.5174°
Rev number
8,293

§ Raw data

LEMUR-2-EMERSONROSE1 63261U 25052BD  26262.92423419  .00003120  00000+0  25777-3 0  99902 63261  97.6771 154.9435 0005545  84.6681 275.5174 14.99673345 82934

JSON: /api/v1/satellites/63261 · /tle

For live sub-satellite position, see the globe view (requires WebGL).

§ Visibility from observer

Set your observer location to see the next 7 days of passes ≥ 10°. The values pass through the URL so the page stays shareable.

No JS? Fill the form by hand. The geolocation button needs JavaScript.